Regional Weather Roundup
Issued by NWS

Home | Current Version | Previous Version | Text Only | Print | Product List | Glossary On
Versions: 1 2 3 4 5 6 7 8 9 10 11 12 13 14 15 16 17 18 19 20 21 22 23 24 25 26 27 28 29 30 31 32 33 34 35 36 37 38 39 40 41 42 43 44 45 46 47 48 49 50
000
ASUS43 KOAX 280402
RWRNE

WEATHER ROUNDUP FOR NEBRASKA
NATIONAL WEATHER SERVICE OMAHA NE
1100 PM CDT FRI MAR 27 2015

NOTES: SATELLITE DATA IS BEING USED TO AUGMENT CLOUD COVER ABOVE
       12000 FEET.
       "FAIR" INDICATES FEW OR NO CLOUDS BELOW 12,000 FEET WITH NO
       SIGNIFICANT WEATHER AND/OR OBSTRUCTIONS TO VISIBILITY.

  * THESE STATIONS DO NOT REPORT WEATHER SUCH AS RAIN...SNOW OR FOG.

NEZ001>004-019>022-054>056-280500-
NEBRASKA PANHANDLE

CITY           SKY/WX    TMP DP  RH WIND       PRES   REMARKS
SCOTTSBLUFF    PTCLDY    51  32  48 W6        30.02R
ALLIANCE       MOCLDY    41  31  67 SW8       30.01R
CHADRON        MOCLDY    45  34  65 SW6       29.98R
KIMBALL        CLEAR     44  28  53 NW7       30.05S
SIDNEY         PTCLDY    43  31  62 NW9       30.04R
$$

NEZ057>060-069>072-079>082-280500-
SOUTHWEST NEBRASKA

CITY           SKY/WX    TMP DP  RH WIND       PRES   REMARKS
NORTH PLATTE   PTCLDY    41  34  76 CALM      29.98R
IMPERIAL         N/A     50  32  50 MISG      29.99R
MCCOOK         PTCLDY    47  35  63 NE8       29.97R
$$

NEZ005>010-023>029-035>040-094-280500-
NORTH CENTRAL NEBRASKA

CITY           SKY/WX    TMP DP  RH WIND       PRES   REMARKS
VALENTINE      MOCLDY    40  31  70 W3        29.94R
AINSWORTH      CLEAR     39  31  72 SW5       29.94S
BROKEN BOW     CLEAR     34  29  82 CALM      29.96R
ORD            PTCLDY    36  25  64 SE6       29.98R WCI  31
$$

NEZ041-046>049-061>064-073>077-083>087-280500-
SOUTH CENTRAL NEBRASKA

CITY           SKY/WX    TMP DP  RH WIND       PRES   REMARKS
GRAND ISLAND   PTCLDY    34  24  67 SE8       30.02S WCI  27
AURORA         CLOUDY    34  25  69 SE15      30.02S WCI  24
HASTINGS       MOCLDY    38  24  57 S13       30.00F WCI  30
HEBRON         PTCLDY    34  23  66 SE7       30.05F WCI  27
KEARNEY *      MOCLDY    39  25  56 S12       30.00S WCI  32
$$

NEZ011>018-030>034-042>045-280500-
NORTHEAST NEBRASKA

CITY           SKY/WX    TMP DP  RH WIND       PRES   REMARKS
NORFOLK        CLOUDY    33  27  78 SE9       30.03S WCI  25
BLAIR          CLOUDY    36  23  60 SE10      30.08F WCI  28
COLUMBUS *     CLOUDY    34  21  60 SE7       30.06S WCI  28
TEKAMAH        CLOUDY    36  21  54 SE9       30.10S WCI  29
$$

NEZ050>053-065>068-078-088>093-280500-
SOUTHEAST NEBRASKA

CITY           SKY/WX    TMP DP  RH WIND       PRES   REMARKS
LINCOLN        CLOUDY    36  22  56 SE12      30.09S WCI  28
OMAHA EPPLEY   CLOUDY    37  21  52 S12       30.11S WCI  29
BEATRICE       MOCLDY    36  24  61 SE8       30.07F WCI  30
FALLS CITY     CLOUDY    37  23  56 SE9       30.12F WCI  30
NEBRASKA CITY  CLOUDY    36  20  53 SE8       30.10F WCI  29
PLATTSMOUTH    CLOUDY    35  19  50 SE7       30.10S WCI  29
$$

NEZ044-045-051>053-067-280500-
OMAHA AREA

CITY           SKY/WX    TMP DP  RH WIND       PRES   REMARKS
OMAHA EPPLEY   CLOUDY    37  21  52 S12       30.11S WCI  29
BLAIR          CLOUDY    36  23  60 SE10      30.08F WCI  28
OFFUTT AFB     CLOUDY    36  22  56 SE8       30.10F WCI  30
PLATTSMOUTH    CLOUDY    35  19  50 SE7       30.10S WCI  29
WAHOO          MOCLDY    34  24  68 SE8       30.08S WCI  27
$$



USA.gov is the U.S. government's official web portal to all federal, state and local government web resources and services.